This demonstration page uses our WeatherBlox Daily Observations layout. Learn more.

Left ArrowRight Arrow

39.08367, -84.50855

Hourly Observations for February 22, 2016

Temp ( °F °C ) Dew Point ( °F °C ) Humidity (%) Winds ( mph kmh ) Pressure ( in mb ) Visibility ( mi km ) Precip ( " mm )
12:53 am 00:53 Clear 39 3.9 33 0.6 79 79 NE 10 17 30.11 1020 10 16 N/A
1:53 am 01:53 Clear 37 2.8 32 undefined 82 82 NNE 6 9 30.12 1020 10 16 N/A
2:53 am 02:53 Clear 36 2.2 31 -0.6 82 82 NNE 5 7 30.12 1020 10 16 N/A
3:53 am 03:53 Clear 35 1.7 30 -1.1 82 82 NNE 5 7 30.11 1020 10 16 N/A
4:53 am 04:53 Clear 34 1.1 30 -1.1 85 85 N 6 9 30.14 1021 10 16 N/A
5:53 am 05:53 Clear 34 1.1 30 -1.1 85 85 NNE 5 7 30.15 1021 10 16 N/A
6:53 am 06:53 Clear 32 undefined 29 -1.7 88 88 NNE 6 9 30.16 1022 10 16 N/A
7:53 am 07:53 Sunny 32 undefined 29 -1.7 88 88 NE 7 11 30.17 1022 10 16 N/A
8:53 am 08:53 Sunny 35 1.7 30 -1.1 82 82 ENE 5 7 30.17 1022 10 16 N/A
9:53 am 09:53 Sunny 38 3.3 32 undefined 79 79 NE 9 15 30.16 1021 10 16 N/A
10:53 am 10:53 Sunny 41 5 32 undefined 70 70 E 7 11 30.15 1021 10 16 N/A
11:53 am 11:53 Sunny 43 6.1 32 undefined 65 65 ENE 8 13 30.15 1021 10 16 N/A
12:53 pm 12:53 Sunny 45 7.2 32 undefined 61 61 ENE 5 7 30.12 1020 10 16 N/A
1:53 pm 13:53 Sunny 48 8.9 32 undefined 54 54 NE 7 11 30.10 1019 10 16 N/A
2:53 pm 14:53 Sunny 49 9.4 33 0.6 55 55 E 5 7 30.08 1019 10 16 N/A
3:53 pm 15:53 Sunny 49 9.4 33 0.6 55 55 ENE 5 7 30.08 1019 10 16 N/A
4:53 pm 16:53 Sunny 49 9.4 34 1.1 56 56 ENE 9 15 30.06 1018 10 16 N/A
5:53 pm 17:53 Sunny 47 8.3 34 1.1 61 61 NE 8 13 30.06 1018 10 16 N/A
6:53 pm 18:53 Clear 44 6.7 33 0.6 65 65 ENE 7 11 30.06 1018 10 16 N/A
7:53 pm 19:53 Clear 43 6.1 32 undefined 65 65 N N/A 30.08 1019 10 16 N/A
8:53 pm 20:53 Clear 40 4.4 33 0.6 77 77 NE 8 13 30.08 1019 10 16 N/A
9:53 pm 21:53 Clear 39 3.9 33 0.6 79 79 NE 8 13 30.07 1018 10 16 N/A
10:53 pm 22:53 Clear 39 3.9 32 undefined 76 76 NE 7 11 30.08 1019 10 16 N/A
11:53 pm 23:53 Clear 38 3.3 31 -0.6 76 76 NNE 8 13 30.06 1018 10 16 N/A

Powered by AerisWeather